Wind_Speed
6 7 8 9 9 10 10 11 11 11 11 11 12 12 12 11 11 11 11 12 12 13 14 14 15 15 15 15 15 15 15 16 16 17 17 18 18 18 18 19 19 19 19 19
7 8 9 9 9 10 11 12 12 12 11 12 13 13 13 13 13 12 12 12 13 14 14 15 15 15 15 16 16 16 16 17 17 18 18 18 19 19 19 20 20 21 21 21
10 10 10 10 10 11 12 12 13 12 12 13 14 14 14 14 14 13 13 13 13 14 15 15 16 16 16 17 17 17 18 18 19 19 19 19 19 20 21 21 22 22 22 23
13 13 13 11 12 13 13 13 13 14 13 14 14 15 15 16 15 14 14 14 15 16 16 17 17 18 18 18 19 19 19 20 20 20 20 20 20 21 22 22 23 24 25 25
15 15 14 13 14 15 15 15 15 15 15 15 15 16 17 17 17 16 16 16 17 17 17 18 18 19 19 19 20 21 21 21 21 21 21 21 22 23 23 24 25 26 26 27
16 16 15 14 15 15 16 16 16 16 16 16 17 17 17 18 18 18 18 18 18 19 19 19 19 19 20 21 21 22 22 22 22 23 23 23 24 25 25 26 27 27 28 28
18 18 17 16 16 16 16 16 17 17 17 17 18 19 19 19 19 19 19 19 19 19 19 20 20 20 21 21 22 23 23 24 24 24 25 25 26 27 27 28 29 29 30 30
20 20 18 18 18 18 17 18 19 19 19 19 20 20 20 21 21 21 21 21 21 21 21 21 21 21 22 23 23 24 24 24 24 25 26 27 28 29 29 30 30 31 32 32
22 21 19 19 20 19 20 20 21 21 21 21 21 21 22 22 22 23 23 23 23 23 23 23 23 23 24 24 25 26 26 26 26 27 28 29 29 30 31 32 32 33 33 34
23 22 21 21 21 21 21 21 22 23 23 23 23 23 23 23 24 24 24 24 24 25 25 25 25 26 26 27 27 28 28 28 28 29 30 31 32 32 33 34 35 35 36 37
25 24 24 23 23 23 23 23 24 24 24 24 24 25 25 25 25 25 25 26 26 26 27 27 28 28 28 29 30 30 30 30 31 31 32 33 34 34 35 36 37 38 39 39
26 25 26 26 25 25 25 25 26 25 25 25 25 25 26 26 26 27 27 27 27 27 27 28 29 29 30 30 31 31 32 32 33 33 34 35 35 36 37 38 39 40 41 41
27 27 27 27 27 27 26 26 26 26 26 26 26 26 27 27 28 28 28 28 29 29 29 29 30 31 31 32 33 33 34 34 35 36 36 37 38 38 39 40 41 42 43 44
29 30 30 29 29 28 28 28 28 27 27 27 28 28 28 28 28 29 29 29 30 30 30 31 32 32 33 34 34 35 36 36 37 38 39 40 41 41 42 43 44 44 46 47
31 32 31 31 30 30 30 30 30 29 29 29 30 30 30 30 30 30 30 31 31 32 32 32 33 34 35 35 36 37 38 39 40 41 42 42 43 44 45 45 46 47 48 49
32 32 32 31 31 31 31 31 31 31 31 31 32 32 32 32 32 32 32 33 33 33 34 35 36 36 37 38 39 39 40 41 42 43 43 44 45 46 47 47 48 49 50 51
33 33 32 33 33 33 33 32 32 33 32 32 33 33 34 34 34 34 35 35 35 36 37 37 38 39 40 41 41 41 42 44 44 45 45 46 47 48 49 50 51 51 52 53
33 33 34 34 34 34 34 34 33 33 33 33 34 34 34 35 35 36 36 37 37 38 39 40 40 41 41 42 42 43 44 45 46 46 47 48 49 50 51 52 52 53 54 54
34 34 35 35 35 35 35 35 35 34 34 34 34 35 35 35 36 37 37 38 38 39 40 41 42 42 42 43 44 45 45 46 47 48 49 50 51 52 53 53 54 55 55 56
35 35 35 36 36 36 36 36 35 35 34 34 35 35 35 36 36 37 37 38 39 40 41 42 42 43 43 44 45 46 47 47 48 49 51 52 53 53 54 54 55 56 56 57
35 35 35 35 35 35 35 35 35 35 34 35 35 35 36 36 37 37 37 38 39 41 42 42 43 43 44 45 46 47 47 48 49 50 51 52 53 54 54 55 55 56 56 56
33 34 33 33 33 34 34 34 34 34 35 35 36 37 37 38 38 38 39 40 41 42 43 43 44 45 45 46 47 48 49 49 50 50 51 52 53 53 53 54 55 56 56 56
32 33 33 33 33 33 33 33 34 34 35 35 36 37 38 38 39 40 40 41 42 42 43 43 44 45 46 46 47 48 49 49 50 51 51 52 53 53 53 54 55 55 55 55
33 33 33 34 34 34 34 34 34 35 35 36 37 37 38 39 39 40 41 41 42 42 43 43 44 45 45 46 47 48 49 50 50 51 52 53 53 53 54 54 54 53 54 54
34 33 33 34 34 35 35 35 36 36 36 37 37 38 39 39 40 40 41 41 42 43 43 44 45 45 46 46 47 48 49 50 51 52 52 52 52 53 53 53 53 53 53 53
35 35 35 35 35 36 36 37 37 37 38 38 38 39 40 40 41 41 41 42 42 43 44 45 45 45 46 46 47 48 49 50 51 51 51 51 51 51 52 52 52 51 51 51
36 36 36 36 36 36 37 37 38 38 39 39 39 40 40 41 41 42 43 43 44 44 45 45 45 46 46 47 48 49 50 50 50 50 50 51 51 50 50 50 50 50 50 50
Wind_Direction
224 221 225 220 223 228 234 237 241 244 248 248 249 249 249 251 251 252 250 253 254 253 254 256 257 259 260 262 264 266 268 270 271 272 275 277 281 284 287 291 293 296 297 298
234 236 231 227 227 235 240 243 246 245 247 251 253 253 252 255 259 258 256 254 254 255 255 257 258 260 260 261 263 264 268 271 273 273 274 276 280 284 286 288 291 293 294 296
241 246 242 236 234 236 239 242 248 250 250 249 254 257 259 258 260 262 260 258 256 257 258 259 260 260 260 261 262 265 268 271 273 274 274 276 280 284 286 288 290 292 293 295
247 250 249 247 247 248 247 248 252 255 253 252 256 259 261 261 262 263 261 261 260 261 263 263 262 261 261 262 264 266 269 271 274 275 276 277 280 283 286 288 290 291 292 294
251 252 250 249 251 253 254 254 257 260 259 259 259 260 261 261 261 262 262 262 263 263 263 263 263 263 263 264 266 268 270 272 274 276 277 278 280 283 286 288 290 292 293 294
254 256 256 255 253 255 257 258 259 261 262 262 263 263 263 262 262 262 263 263 263 262 263 264 265 265 266 267 268 270 272 272 273 274 277 279 280 283 285 287 290 292 293 294
258 260 261 260 258 258 259 261 260 261 262 263 264 264 265 264 264 265 266 264 263 262 263 265 265 266 268 268 269 271 272 273 274 275 277 278 280 283 285 286 288 291 293 294
260 264 266 265 265 265 265 263 263 263 263 263 265 266 266 266 265 266 266 266 265 264 265 266 266 267 268 268 270 271 273 274 276 277 278 279 282 284 286 287 289 290 292 293
262 266 268 266 267 267 266 265 265 265 264 264 265 266 266 266 266 265 266 266 265 266 266 267 268 269 269 270 271 273 274 276 277 279 280 280 282 285 287 289 290 291 292 293
262 265 266 267 267 267 267 267 266 267 267 267 268 268 267 266 266 266 266 266 267 267 268 269 270 271 272 273 274 275 276 277 278 280 281 282 283 285 287 289 290 291 292 293
262 265 266 268 268 269 269 269 269 269 269 269 269 269 269 268 267 267 267 268 268 269 269 270 271 273 274 274 275 276 277 278 279 280 281 283 284 286 287 288 290 291 292 292
262 263 266 268 268 269 270 271 271 271 272 271 271 270 270 269 268 267 268 268 268 269 270 271 272 273 274 275 276 277 277 278 279 280 282 283 285 286 287 289 290 292 292 293
262 263 266 267 268 270 271 271 270 271 271 271 271 271 271 270 268 268 268 269 269 270 271 272 272 273 274 276 276 277 277 278 280 281 282 284 285 286 287 288 290 291 291 292
262 264 265 266 267 268 270 270 271 271 270 270 271 272 272 272 271 270 270 270 270 271 271 272 273 274 276 276 277 278 279 280 281 282 284 285 286 286 287 288 289 290 290 291
260 262 264 265 266 267 268 269 270 270 270 270 271 273 273 273 273 272 272 271 271 272 272 273 274 276 277 278 278 279 280 281 282 284 285 286 286 287 288 288 289 290 290 291
259 261 263 265 266 267 268 269 270 270 270 270 271 272 273 273 273 273 273 272 273 273 274 274 275 277 278 278 279 280 281 282 283 284 285 286 287 288 289 289 290 290 291 292
260 262 264 265 266 268 269 270 271 271 271 271 272 273 273 273 273 273 274 275 276 277 277 277 277 277 279 280 280 280 282 283 284 285 286 287 288 289 289 290 290 291 292 292
260 262 263 265 266 268 269 270 271 272 273 273 273 273 274 274 274 274 275 275 276 277 278 278 278 279 280 280 281 281 282 283 285 286 286 287 288 289 290 291 291 291 292 292
260 262 264 265 266 267 268 269 270 271 272 272 273 273 274 275 276 276 276 276 276 277 278 279 279 280 280 281 282 282 283 284 285 286 287 288 289 290 291 291 292 292 292 293
260 262 264 265 266 267 268 268 269 271 272 273 273 274 275 276 277 278 278 278 278 279 280 280 281 281 282 284 284 284 285 286 287 288 288 289 290 290 291 291 292 293 293 294
260 262 264 265 266 267 268 269 270 271 272 273 274 275 276 277 278 279 280 280 281 281 282 283 283 284 284 284 286 286 287 288 289 290 290 291 292 292 292 292 293 293 294 295
261 263 264 265 266 267 268 269 270 271 272 273 274 275 276 278 279 280 281 282 283 283 284 284 284 285 285 286 286 287 288 289 290 291 292 293 293 294 294 294 294 294 295 295
260 262 263 265 267 268 268 269 270 271 273 275 276 277 278 278 279 281 281 282 283 284 285 285 285 285 286 287 288 288 290 291 291 292 293 294 295 295 295 296 296 296 296 295
263 264 264 265 266 268 269 270 272 273 275 276 277 278 279 280 281 281 282 283 283 284 285 286 287 287 288 288 289 290 290 291 292 293 294 294 295 296 296 297 297 297 297 297
263 265 266 267 268 269 270 271 273 275 276 277 277 278 279 281 282 283 283 283 284 285 285 286 287 289 289 290 290 291 292 292 293 294 295 295 296 296 297 297 297 298 298 298
264 265 266 267 268 269 270 272 273 275 276 277 278 279 280 281 282 283 284 285 286 286 286 287 288 289 291 291 292 293 293 294 295 295 296 296 297 297 297 298 298 298 299 299
264 265 266 267 268 270 271 273 274 275 276 278 279 280 281 282 283 284 285 285 286 287 288 289 290 291 291 292 293 294 294 295 295 295 295 296 297 297 297 297 298 298 299 299
Height
5848 5848 5849 5850 5851 5852 5853 5854 5855 5856 5856 5857 5857 5858 5859 5860 5861 5862 5862 5863 5863 5863 5864 5865 5865 5865 5865 5865 5865 5865 5865 5864 5864 5863 5863 5862 5861 5860 5859 5858 5856 5854 5852 5850
5846 5846 5847 5847 5848 5849 5850 5851 5852 5853 5854 5854 5854 5855 5856 5857 5857 5858 5859 5859 5859 5860 5860 5860 5861 5861 5861 5861 5861 5860 5860 5860 5859 5858 5858 5857 5856 5855 5854 5852 5851 5849 5847 5845
5844 5844 5844 5846 5846 5846 5847 5847 5848 5849 5851 5850 5851 5852 5853 5853 5854 5854 5854 5855 5855 5855 5856 5856 5856 5856 5856 5856 5856 5856 5855 5855 5854 5853 5852 5852 5851 5849 5848 5846 5845 5843 5841 5839
5841 5842 5842 5845 5843 5843 5844 5844 5845 5845 5846 5847 5847 5848 5848 5849 5849 5850 5850 5850 5850 5851 5851 5851 5851 5851 5851 5851 5851 5850 5850 5849 5848 5848 5847 5846 5845 5843 5842 5840 5839 5837 5835 5833
5837 5837 5838 5840 5840 5840 5840 5841 5841 5841 5842 5842 5843 5843 5844 5844 5845 5845 5845 5845 5846 5846 5846 5846 5846 5846 5846 5845 5845 5845 5844 5843 5843 5842 5841 5840 5839 5837 5836 5834 5832 5830 5828 5825
5833 5833 5834 5837 5836 5836 5837 5837 5837 5837 5837 5838 5838 5839 5839 5839 5839 5840 5840 5840 5840 5841 5841 5841 5840 5840 5840 5840 5839 5839 5838 5837 5836 5835 5835 5833 5832 5830 5829 5827 5825 5823 5820 5818
5828 5828 5829 5831 5831 5832 5833 5834 5833 5832 5833 5833 5833 5833 5833 5833 5834 5834 5834 5834 5834 5835 5835 5835 5834 5834 5834 5834 5833 5832 5832 5831 5830 5829 5827 5826 5825 5823 5821 5819 5817 5815 5812 5809
5823 5823 5826 5825 5825 5827 5827 5827 5827 5827 5827 5827 5827 5827 5827 5827 5827 5828 5828 5828 5828 5828 5828 5828 5828 5828 5828 5827 5826 5826 5825 5824 5823 5821 5820 5818 5817 5815 5813 5811 5809 5806 5803 5800
5818 5820 5820 5819 5819 5820 5820 5820 5820 5820 5821 5821 5821 5821 5821 5821 5821 5821 5821 5821 5821 5822 5822 5821 5821 5821 5821 5820 5819 5818 5817 5816 5815 5814 5812 5810 5809 5807 5804 5802 5800 5797 5794 5791
5811 5812 5812 5813 5813 5813 5813 5813 5813 5813 5814 5814 5814 5814 5814 5814 5814 5814 5814 5814 5814 5814 5814 5814 5814 5813 5813 5812 5811 5810 5809 5808 5807 5805 5804 5802 5800 5798 5795 5793 5790 5787 5784 5781
5804 5805 5805 5805 5806 5806 5806 5806 5806 5806 5806 5806 5806 5806 5806 5806 5806 5806 5806 5806 5806 5806 5806 5806 5805 5805 5804 5803 5803 5802 5801 5799 5798 5796 5795 5793 5790 5788 5785 5783 5780 5777 5773 5770
5797 5798 5798 5798 5798 5798 5799 5798 5798 5799 5799 5798 5798 5798 5798 5798 5798 5798 5798 5798 5798 5798 5797 5797 5796 5796 5795 5794 5793 5792 5791 5790 5788 5786 5785 5782 5780 5778 5775 5772 5769 5765 5762 5758
5789 5789 5790 5790 5791 5791 5791 5791 5791 5791 5791 5790 5790 5790 5790 5789 5789 5789 5789 5789 5789 5789 5789 5788 5787 5787 5786 5785 5784 5783 5781 5780 5778 5776 5774 5772 5769 5767 5764 5761 5757 5753 5749 5746
5780 5781 5781 5782 5783 5783 5783 5783 5783 5783 5783 5782 5782 5782 5781 5781 5780 5780 5780 5780 5779 5779 5779 5778 5778 5777 5776 5775 5773 5772 5770 5769 5767 5765 5763 5760 5757 5754 5751 5748 5745 5741 5737 5732
5772 5772 5772 5773 5774 5774 5774 5774 5774 5774 5774 5774 5773 5773 5773 5772 5772 5771 5770 5770 5770 5769 5768 5768 5767 5766 5765 5764 5762 5761 5759 5757 5755 5753 5750 5747 5744 5741 5738 5734 5731 5727 5723 5719
5762 5762 5763 5764 5764 5764 5765 5765 5765 5765 5765 5765 5764 5764 5763 5763 5762 5762 5761 5760 5759 5758 5757 5757 5756 5755 5754 5752 5750 5749 5747 5744 5742 5740 5737 5734 5731 5727 5724 5720 5716 5712 5708 5704
5753 5753 5754 5754 5755 5755 5755 5755 5755 5755 5755 5755 5754 5754 5753 5752 5752 5751 5750 5749 5748 5747 5746 5745 5744 5743 5741 5739 5738 5735 5733 5731 5728 5726 5723 5720 5716 5713 5709 5705 5701 5697 5693 5688
5743 5744 5744 5745 5745 5745 5745 5745 5745 5745 5744 5744 5743 5743 5742 5741 5741 5740 5739 5738 5737 5736 5734 5733 5731 5730 5728 5726 5724 5722 5720 5717 5714 5711 5708 5705 5701 5697 5693 5689 5685 5680 5676 5671
5732 5733 5734 5734 5734 5734 5734 5734 5734 5734 5733 5733 5732 5732 5731 5730 5729 5728 5727 5726 5725 5723 5722 5720 5718 5717 5715 5713 5711 5708 5705 5703 5700 5696 5693 5689 5685 5681 5677 5673 5668 5664 5659 5654
5721 5722 5722 5723 5723 5723 5723 5723 5723 5723 5722 5722 5721 5720 5720 5719 5718 5716 5715 5714 5712 5710 5708 5707 5705 5703 5701 5699 5696 5693 5691 5688 5684 5681 5677 5673 5669 5665 5660 5656 5651 5647 5642 5637
5710 5711 5711 5711 5712 5712 5712 5712 5712 5712 5711 5711 5710 5709 5708 5707 5706 5705 5703 5701 5699 5697 5696 5694 5692 5689 5687 5684 5682 5679 5676 5672 5669 5665 5661 5657 5652 5648 5643 5639 5634 5629 5624 5619
5699 5700 5700 5700 5701 5701 5701 5701 5701 5700 5700 5699 5699 5698 5697 5695 5694 5693 5691 5689 5687 5685 5683 5680 5678 5676 5673 5670 5667 5664 5661 5657 5653 5649 5645 5640 5636 5631 5627 5622 5617 5612 5607 5602
5688 5689 5689 5690 5690 5690 5690 5690 5690 5689 5688 5688 5687 5686 5685 5683 5682 5680 5679 5677 5674 5672 5669 5667 5664 5661 5658 5655 5652 5649 5645 5642 5638 5633 5629 5625 5620 5615 5610 5605 5600 5595 5589 5584
5677 5678 5679 5679 5679 5679 5679 5679 5678 5677 5677 5676 5675 5674 5672 5671 5669 5667 5665 5663 5661 5659 5656 5653 5650 5647 5644 5641 5638 5634 5630 5626 5622 5618 5613 5609 5604 5599 5594 5589 5583 5578 5573 5567
5666 5667 5667 5668 5668 5668 5668 5667 5666 5666 5665 5664 5663 5661 5660 5658 5657 5655 5652 5650 5648 5645 5642 5639 5637 5633 5630 5627 5623 5619 5615 5611 5607 5603 5598 5593 5588 5583 5578 5573 5567 5562 5557 5551
5654 5655 5656 5656 5656 5656 5656 5655 5655 5654 5653 5652 5650 5649 5647 5645 5644 5641 5639 5637 5634 5632 5629 5626 5623 5619 5616 5612 5609 5605 5601 5596 5592 5587 5583 5578 5573 5568 5563 5557 5552 5547 5542 5536
5642 5643 5643 5644 5644 5644 5643 5643 5642 5641 5640 5639 5638 5636 5634 5633 5630 5628 5626 5623 5621 5618 5615 5612 5609 5605 5602 5598 5594 5590 5586 5582 5577 5572 5568 5563 5558 5553 5548 5543 5537 5532 5527 5522